Weather History for Carlsbad, CA

Change the Weather History Date:

Saturday, March 23, 2013

  Actual Average Record
Temperature  
Mean Temperature 58 °F -  
Max Temperature 64 °F 60 °F 84 °F (2008)
Min Temperature 53 °F 49 °F 45 °F (2009)
Degree Days  
Heating Degree Days 7    
Growing Degree Days 8 (Base 50)    
Moisture  
Dew Point 50 °F    
Average Humidity 76    
Maximum Humidity 88    
Minimum Humidity 62    
Precipitation  
Precipitation 0.00 in - - ()
Sea Level Pressure  
Sea Level Pressure 29.96 in    
Wind  
Wind Speed 2 mph (SSW)    
Max Wind Speed 8 mph    
Max Gust Speed -    
Visibility 8 miles    
Events      
Averages and records for this station are not official NWS values.
T = Trace of Precipitation, MM = Missing Value Source: NWS Daily Summary

Daily Weather History Graph

Daily Weather History Graph

Search for Another Location

Airport:

Trip Planner

Search our weather history database for the weather conditions in past years. The results will help you decide how hot, cold, wet, or windy it might be!

Date:

Astronomy

Mar. 23, 2013 Rise Set
Actual Time 6:48 AM PDT 7:03 PM PDT
Civil Twilight 6:23 AM PDT 7:27 PM PDT
Nautical Twilight 5:54 AM PDT 7:56 PM PDT
Astronomical Twilight 5:25 AM PDT 8:26 PM PDT
Moon 3:43 PM PDT (3/23) 4:17 AM PDT (3/23)
Length of Visible Light 13h 04m
Length of Day
12h 14m
Waxing Gibbous, 86% of the Moon is Illuminated
Mar 23
Waxing Gibbous
Mar 27
Full
Apr 2
Last Quarter
Apr 10
New
Apr 18
First Quarter

Hourly Weather History & Observations

Time (PDT) Temp. Dew Point Humidity Pressure Visibility Wind Dir Wind Speed Gust Speed Precip Events Conditions
12:53 AM 54.0 °F 48.0 °F 80% 29.91 in 9.0 mi Calm Calm - N/A   Clear
1:53 AM 54.0 °F 48.9 °F 83% 29.91 in 9.0 mi Calm Calm - N/A   Mostly Cloudy
2:53 AM 53.1 °F 48.0 °F 83% 29.91 in 9.0 mi Calm Calm - N/A   Overcast
3:13 AM 53.6 °F 48.2 °F 82% 29.91 in 8.0 mi Calm Calm - N/A   Overcast
3:22 AM 53.6 °F 48.2 °F 82% 29.91 in 8.0 mi Calm Calm - N/A   Overcast
3:53 AM 54.0 °F 50.0 °F 86% 29.90 in 8.0 mi Calm Calm - N/A   Overcast
4:53 AM 55.9 °F 51.1 °F 84% 29.92 in 8.0 mi Calm Calm - N/A   Overcast
5:41 AM 55.4 °F 50.0 °F 82% 29.93 in 7.0 mi SSE 3.5 mph - N/A   Overcast
5:53 AM 55.0 °F 50.0 °F 83% 29.94 in 7.0 mi Calm Calm - N/A   Overcast
6:53 AM 55.0 °F 50.0 °F 83% 29.94 in 6.0 mi East 5.8 mph - N/A   Haze
7:14 AM 55.4 °F 51.8 °F 88% 29.95 in 4.0 mi East 5.8 mph - N/A   Haze
7:53 AM 57.0 °F 50.0 °F 77% 29.96 in 7.0 mi East 4.6 mph - N/A   Overcast
8:30 AM 57.2 °F 50.0 °F 77% 29.98 in 7.0 mi Calm Calm - N/A   Overcast
8:53 AM 55.9 °F 50.0 °F 80% 29.99 in 6.0 mi Calm Calm - N/A   Haze
9:53 AM 57.9 °F 50.0 °F 75% 30.00 in 7.0 mi ENE 3.5 mph - N/A   Overcast
10:29 AM 59.0 °F 48.2 °F 67% 30.01 in 7.0 mi Calm Calm - N/A   Overcast
10:53 AM 60.1 °F 48.9 °F 67% 30.00 in 7.0 mi Calm Calm - N/A   Overcast
11:37 AM 60.8 °F 48.2 °F 63% 29.99 in 8.0 mi SSE 4.6 mph - N/A   Scattered Clouds
11:53 AM 62.1 °F 48.9 °F 62% 29.98 in 8.0 mi Calm Calm - N/A   Clear
12:53 PM 63.0 °F 50.0 °F 63% 29.98 in 10.0 mi WSW 8.1 mph - N/A   Clear
1:53 PM 62.1 °F 50.0 °F 65% 29.98 in 9.0 mi West 8.1 mph - N/A   Clear
2:53 PM 63.0 °F 50.0 °F 63% 29.97 in 9.0 mi WSW 8.1 mph - N/A   Clear
3:53 PM 63.0 °F 50.0 °F 63% 29.94 in 10.0 mi West 6.9 mph - N/A   Clear
4:53 PM 62.1 °F 50.0 °F 65% 29.94 in 10.0 mi WSW 8.1 mph - N/A   Clear
5:53 PM 61.0 °F 51.1 °F 70% 29.95 in 9.0 mi West 4.6 mph - N/A   Clear
6:53 PM 59.0 °F 51.1 °F 75% 29.96 in 9.0 mi WSW 4.6 mph - N/A   Clear
7:53 PM 59.0 °F 51.1 °F 75% 29.97 in 10.0 mi Calm Calm - N/A   Partly Cloudy
8:50 PM 57.2 °F 51.8 °F 82% 30.00 in 10.0 mi Calm Calm - N/A   Mostly Cloudy
8:53 PM 57.9 °F 51.1 °F 78% 29.99 in 10.0 mi Calm Calm - N/A   Mostly Cloudy
9:26 PM 57.2 °F 51.8 °F 82% 30.01 in 10.0 mi Calm Calm - N/A   Overcast
9:53 PM 57.9 °F 51.1 °F 78% 30.01 in 10.0 mi Calm Calm - N/A   Scattered Clouds
10:14 PM 57.2 °F 51.8 °F 82% 30.01 in 9.0 mi Calm Calm - N/A   Mostly Cloudy
10:53 PM 57.0 °F 51.1 °F 81% 30.01 in 9.0 mi Calm Calm - N/A   Mostly Cloudy
11:53 PM 55.9 °F 51.1 °F 84% 30.01 in 8.0 mi Calm Calm - N/A   Overcast